Location: Brunembert
(50.7122°N, 1.8935°E)
Time: 04:11:41
(UTC+00:00)

Sich 1 - Pass Details

Date: 22 April 2021
Orbit: 593 x 626 km, 82.5° (Epoch: 06 May)

Event Time Altitude Azimuth Distance (km) Brightness Sun altitude
Rises 21:34:56 0° 357° (N) 2,846 7.4 -20.2°
Reaches altitude 10° 21:37:21 10° 7° (N) 1,940 6.2 -20.4°
Maximum altitude 21:41:11 31° 71° (ENE) 1,057 4.1 -20.7°
Enters shadow 21:41:29 31° 79° (E) 1,065 4.0 -20.8°
